Simultaneous Nadir Overpasses (SNOs) Predictions

Prediction of SNOs between AQUA and METOP-C Satellite Orbit:

Table of predicted SNOs for the next 14.0 days since TLE Epoch: 11/16/2024
Index Date (AQUA) Time (AQUA) Lat,Lon (AQUA) SZA (AQUA ) Date (METOP-C) Time (METOP-C) Lat,Lon (METOP-C) SZA (METOP-C ) Distance(km) Time Diff (sec)
1 11/18/2024 17:39:14 75.47, -83.43 94.90 11/18/2024 17:38:07 75.39, -86.00 94.77 72.35 67
2 11/18/2024 18:28:42 -75.89, 82.99 84.70 11/18/2024 18:28:38 -75.91, 82.99 84.68 2.55 4
3 11/18/2024 19:18:04 75.97,-109.59 95.39 11/18/2024 19:19:16 75.98,-109.45 95.41 4.16 72
4 11/21/2024 08:08:36 75.88, 58.11 95.87 11/21/2024 08:08:16 75.89, 58.01 95.88 2.80 20
5 11/21/2024 08:57:57 -75.94,-134.44 84.06 11/21/2024 08:58:57 -75.94,-134.48 84.06 1.19 60
6 11/23/2024 21:48:28 -75.89, 33.14 83.58 11/23/2024 21:47:56 -75.88, 33.09 83.59 1.83 32
7 11/23/2024 22:37:49 75.93,-159.32 96.47 11/23/2024 22:38:34 75.95,-159.36 96.49 1.94 45
8 11/26/2024 11:28:18 75.88, 8.28 96.90 11/26/2024 11:27:33 75.87, 8.16 96.89 3.54 45
9 11/26/2024 12:17:39 -75.95, 175.75 83.03 11/26/2024 12:18:14 -75.93, 175.67 83.04 2.50 35
10 11/29/2024 01:08:06 -75.88, -16.62 82.65 11/29/2024 01:07:12 -75.89, -16.70 82.64 2.39 54
11 11/29/2024 01:57:27 75.93, 150.90 97.41 11/29/2024 01:57:50 75.95, 150.84 97.43 3.00 23



Historial Predications of SNOs between AQUA and METOP-C
